Location: Newark
(49.3000°N, 9.4667°E)
Time: 07:51:29
(UTC+00:00)

Transit 2A Rocket - Pass Details

Date: 24 May 2019
Orbit: 587 x 917 km, 66.7° (Epoch: 24 June)

Event Time Altitude Azimuth Distance (km) Brightness Sun altitude
Rises 01:02:07 0° 323° (NW) 3,463 8.8 -16.3°
Reaches altitude 10° 01:04:42 10° 324° (NW) 2,481 8.0 -16.2°
Maximum altitude 01:10:27 88° 51° (NE) 802 5.1 -15.8°
Drops below altitude 10° 01:15:38 10° 145° (SE) 2,247 7.2 -15.4°
Sets 01:17:53 0° 145° (SE) 3,115 7.9 -15.2°
